Location: Borderline Observatory
(42.7345°N, 72.8696°W)
Time: 06:27:56
(UTC-04:00)

Daily predictions for brighter satellites

Satellite Brightness Start Highest point End
(mag) Time Altitude Azimuth Time Altitude Azimuth Time Altitude Azimuth
Cosmos 2123 Rocket 4.1 19:50:59 10° N 19:57:08 62° E 20:03:13 10° SSE
EO 1 Delta rocket 4.4 19:53:24 10° NNE 19:57:54 41° E 20:03:02 10° SSE
Cosmos 1980 Rocket 3.6 19:56:49 10° SE 20:00:06 16° E 20:03:24 10° ENE
Cosmos 2369 3.7 19:54:51 10° S 20:00:27 65° ESE 20:06:06 10° NNE
Lacrosse 5 2.7 19:55:44 10° NW 20:00:31 39° NNE 20:05:16 10° ESE
Cosmos 220 Rocket 4.4 19:57:05 10° N 20:01:08 42° ENE 20:05:08 10° SE
Resurs 1-3 3.8 20:01:26 10° S 20:05:49 78° WSW 20:10:14 10° NNW
H-2A R/B 3.1 20:02:34 10° SSE 20:06:19 48° ENE 20:10:07 10° N
ERS-1 Rocket 4.0 20:08:57 10° ESE 20:13:10 28° ENE 20:17:25 10° N
Cosmos 1975 3.2 20:10:03 10° SSE 20:13:56 42° E 20:17:50 10° NNE
FENGYUN 3A 3.6 20:12:40 10° SSE 20:18:01 80° ENE 20:23:23 10° N
Lacrosse 5 rocket 1.5 20:14:46 10° NW 20:18:27 59° SW 20:22:01 10° SSE
Cosmos 1656 3.8 20:14:42 10° S 20:20:07 52° ESE 20:25:31 10° NNE
BREEZE-M DEB (TANK) 4.1 20:17:17 10° NW 20:20:16 42° NNE 20:28:20 10° E
Cosmos 1934 Rocket 4.2 20:16:08 10° SSW 20:22:16 76° W 20:28:33 10° N
Helios 1B rocket 4.2 20:20:44 10° N 20:24:34 38° WNW 20:28:22 10° SW
Cosmos 1898 Rocket 3.7 20:22:04 10° NNW 20:27:18 55° ENE 20:32:15 11° SE
DELTA 2 R/B (1) 4.1 20:22:31 10° W 20:27:53 49° SSW 20:32:20 15° SE
CZ-2D R/B 3.3 20:24:42 10° S 20:28:35 82° W 20:32:29 10° NNW
Cosmos 2227 Rocket 2.7 20:23:01 10° NNW 20:28:38 62° WSW 20:34:11 10° S
Resurs 01 Rocket 3.5 20:26:15 10° SSW 20:30:13 32° W 20:34:15 10° NNW
Cosmos 1500 3.4 20:32:15 10° SSE 20:35:52 47° E 20:39:31 10° NNE
Meteor 1-12 Rocket 4.3 20:30:42 10° S 20:36:26 84° E 20:42:21 10° NNE
CZ-4 DEB 3.3 20:34:36 19° SE 20:36:27 37° ENE 20:39:24 10° N
OAO 2 Rocket 4.2 20:36:29 10° WSW 20:41:00 34° S 20:43:52 19° SE
Cosmos 468 Rocket 4.0 20:36:34 10° S 20:41:34 57° ESE 20:46:36 10° NNE
Cosmos 2297 Rocket 2.6 20:38:07 10° NNW 20:43:44 65° WSW 20:49:19 10° S
Cosmos 1340 3.8 20:41:02 10° NNE 20:44:17 26° ENE 20:45:27 23° ESE
Cosmos 1802 Rocket 4.5 20:39:11 10° SSE 20:45:06 41° E 20:51:02 10° NNE
Cosmos 841 Rocket 4.4 20:43:38 11° SSE 20:47:41 28° E 20:52:03 10° NE
ALOS 3.3 20:44:07 10° S 20:48:37 48° W 20:53:09 10° NNW
Cosmos 1939 Rocket 3.2 20:49:05 22° SE 20:51:29 48° ENE 20:55:31 10° N
Cosmos 1814 Rocket 4.0 20:47:54 10° S 20:53:09 62° ESE 20:58:24 10° NNE
Cosmos 1726 Rocket 4.5 20:53:15 25° ESE 20:54:16 28° E 20:58:01 10° NNE
Cosmos 2016 Rocket 4.4 20:50:26 13° SSE 20:55:25 40° E 21:01:08 10° NNE
USA 186 3.1 20:52:46 10° SSW 20:55:38 35° W 20:58:18 10° NNW
Cosmos 1515 4.0 20:55:09 10° NNW 20:58:59 67° W 21:02:35 11° S
ASTEX 1 4.1 21:00:16 10° NNE 21:04:48 34° E 21:06:04 29° ESE
Cosmos 2173 Rocket 4.0 21:01:14 10° S 21:07:32 69° E 21:13:50 10° NNE
Cosmos 1825 Rocket 3.6 21:03:21 10° N 21:07:45 62° E 21:09:42 31° SSE
Cosmos 1743 2.6 21:13:07 22° S 21:15:35 80° E 21:19:30 10° N
RESURS DK-1 2.5 21:13:49 10° NNW 21:17:57 69° WSW 21:19:38 34° S
Cosmos 1953 Rocket 3.6 21:14:17 10° N 21:18:42 59° E 21:19:56 42° SE
Cosmos 967 Rocket 4.5 21:12:25 10° NNW 21:18:47 73° NE 21:21:49 33° SE
Tiangong 1 1.3 21:15:56 10° W 21:18:48 53° SSW 21:18:48 53° SSW
BREEZE-M DEB (TANK) 3.8 21:04:11 10° WSW 21:19:21 76° SSE 21:22:26 23° ENE
Cosmos 1697 Rocket 3.0 21:14:16 10° SSW 21:19:53 70° WNW 21:25:33 10° NNE
H-2A R/B 1.9 21:20:46 47° SE 21:21:45 65° ENE 21:25:53 10° N
Cosmos 2100 Rocket 4.0 21:16:32 10° S 21:22:49 84° W 21:29:05 10° N
Nimbus 7 Rocket 4.4 21:19:20 10° NNE 21:25:23 63° ESE 21:30:16 16° S
Envisat 3.0 21:23:25 26° S 21:26:22 82° WSW 21:31:29 10° NNW
Cosmos 1937 Rocket 3.9 21:23:47 10° NNW 21:28:59 61° WSW 21:32:04 24° S
Cosmos 2228 4.1 21:30:30 29° ENE 21:30:30 29° ENE 21:33:14 10° NNE
SL-16 R/B 3.1 21:31:24 29° E 21:31:24 29° E 21:35:10 10° NE
Tsikada Rocket 4.2 21:26:08 10° N 21:32:25 53° ENE 21:34:27 39° SE
Cosmos 2061 Rocket 4.1 21:26:41 10° SSW 21:33:00 78° W 21:39:17 10° N
ARGOS 3.6 21:34:52 40° E 21:35:47 44° ENE 21:40:52 10° N
Cosmos 1758 Rocket 3.4 21:32:56 10° N 21:37:18 81° E 21:37:55 65° SSE
SL-19 R/B 4.4 21:33:22 10° NNE 21:38:34 45° E 21:38:37 45° E
Cosmos 990 Rocket 4.2 21:34:39 10° NNW 21:39:53 66° WSW 21:41:59 35° S
deb Chang Zheng 4 3.6 21:38:15 10° NNE 21:42:44 84° WNW 21:44:26 38° SSW
Cosmos 1980 Rocket 2.3 21:37:43 10° SSW 21:43:23 74° WNW 21:49:07 10° NNE
Lacrosse 5 2.6 21:38:45 10° WNW 21:43:32 43° SW 21:44:53 35° SSW
Cosmos 1842 3.3 21:42:26 10° N 21:46:02 72° NNE 21:46:02 72° NNE
H-2A R/B 3.1 21:46:51 27° ENE 21:46:51 27° ENE 21:50:41 10° N
MetOp-B 4.0 21:46:49 50° SSE 21:48:17 87° ENE 21:53:41 10° NNW
SPOT 5 2.9 21:49:22 50° S 21:50:39 77° WSW 21:55:29 10° NNW
ERS-1 Rocket 4.3 21:48:21 16° SSW 21:51:48 36° W 21:56:26 10° NNW
Cosmos 1725 Rocket 3.8 21:53:16 40° S 21:55:40 80° E 22:01:56 10° N
BREEZE-M TANK 3.3 21:50:54 10° WNW 21:58:01 45° SW 21:58:04 45° SW
Cosmos 836 Rocket 4.4 21:56:48 52° S 21:58:08 84° ESE 22:03:28 10° NNE
Cosmos 1666 3.3 22:00:57 53° NNW 22:00:57 53° NNW 22:04:06 10° N
Cosmos 2058 Rocket 3.3 22:03:45 61° WSW 22:04:14 67° W 22:08:45 10° N
Cosmos 2098 Rocket 4.0 22:00:54 25° SSW 22:05:06 78° W 22:10:47 10° N
SPOT 1/Viking Rocket 3.4 22:05:15 77° SE 22:05:38 85° ENE 22:10:53 10° NNW
Cosmos 1763 Rocket 4.2 22:00:52 10° SW 22:05:49 51° WNW 22:10:47 10° N
Cosmos 2263 Rocket 2.6 22:03:48 10° NNW 22:09:09 47° ENE 22:09:09 47° ENE
Meteor 2-5 Rocket 4.1 22:07:40 10° N 22:13:10 49° ENE 22:13:10 49° ENE
Terra 2.9 22:15:54 34° NE 22:15:54 34° NE 22:19:11 10° N
YAOGAN 6 4.1 22:16:13 36° WNW 22:16:13 36° WNW 22:19:00 10° NNW
Meteor 1-15 Rocket 4.4 22:13:43 47° SSW 22:15:32 77° W 22:21:25 10° N
Cosmos 1125 Rocket 3.4 22:10:25 10° NNW 22:15:38 78° WSW 22:15:41 78° WSW
Cosmos 2322 Rocket 2.0 22:16:55 82° E 22:16:55 82° E 22:22:26 10° NNE
Cosmos 2233 Rocket 3.8 22:19:10 74° SE 22:19:31 76° E 22:25:46 10° N
USA 215 3.6 22:18:44 45° ENE 22:20:24 56° NNE 22:26:46 10° NW
BREEZE-M DEB (TANK) 3.7 22:06:12 10° WNW 22:24:39 82° NNE 22:25:47 63° E
Cosmos 540 Rocket 4.1 22:42:33 51° N 22:42:33 51° N 22:46:28 10° NNE
Cosmos 2278 Rocket 4.3 22:55:05 10° N 22:58:29 16° NE 22:58:31 16° NE
Cosmos 1464 Rocket 4.4 23:07:00 59° NNE 23:07:00 59° NNE 23:12:05 10° N
SL-16 R/B 3.4 23:13:10 36° W 23:14:10 39° WNW 23:19:29 10° N
Cosmos 1844 Rocket 4.0 23:15:52 10° NNW 23:19:29 33° NNE 23:19:29 33° NNE
H-2A R/B 3.7 23:27:30 28° WNW 23:27:30 28° WNW 23:30:22 10° NNW
Cosmos 2360 Rocket 3.5 23:30:08 36° NNE 23:30:08 36° NNE 23:33:25 10° NNE
Cosmos 2219 Rocket 4.4 23:51:39 16° NE 23:51:39 16° NE 23:52:47 10° NE
Terra 4.3 23:54:47 17° WNW 23:54:47 17° WNW 23:56:22 10° NW
Cosmos 2263 Rocket 4.1 23:48:17 10° NW 23:50:51 21° WNW 23:50:51 21° WNW
